FLOCK 4Y 17

导读 | 星芒AI

FLOCK 4Y 17 是Planet Labs公司发射的一颗地球观测卫星,属于其“Flock”系列。该卫星搭载高分辨率多光谱成像仪,用于获取地球表面的详细图像,广泛应用于环境监测、农业管理、灾害评估等领域。FLOCK 4Y 17 采用小型卫星设计,具备较高的数据采集能力和快速重访能力,是Planet公司构建全球每日成像系统的重要组成部分。

基本信息
目录编号:
55031
目录名称:
FLOCK 4Y 17
国际标识:
2023-001Y
轨道中心:
EARTH
卫星名称:
FLOCK 4Y 17
卫星全名:
--
卫星状态:
已陨落 最后检测时间 2025-07-12
发射日期:
2023-01-03 UTC
国别 :
美国 (US)
星等 :
--
轨道信息
数据来源 国际轨道数据
星历时间: 2025-07-06T06:11:42+0800
轨道信息已过期154天
半长轴: 6549.727km
偏心率: 0.0015306
轨道倾角: 97.337°
近地点辐角 259.842°
升交点赤经 263.236°
平近点角 100.115°
近地点: 161.566km
远地点: 181.618km
周期: 87.921分钟
每日圈数: 16.378271
详细信息
使用方式:
暂无